Groton, CT

7:26 PM EDT on March 22, 2017 (GMT -0400)
Groton-New London

Weather History for KGON - September, 2013

Change the Weather History Date:

Sunday, September 22, 2013

  Actual Average Record
Temperature  
Mean Temperature 62 °F -  
Max Temperature 73 °F 71 °F 87 °F (1970)
Min Temperature 53 °F 52 °F 33 °F (1962)
Degree Days  
Heating Degree Days 2    
Growing Degree Days 12 (Base 50)    
Moisture  
Dew Point 58 °F    
Average Humidity 77    
Maximum Humidity 100    
Minimum Humidity 49    
Precipitation  
Precipitation 0.51 in - - ()
Sea Level Pressure  
Sea Level Pressure 29.71 in    
Wind  
Wind Speed 12 mph (WNW)    
Max Wind Speed 26 mph    
Max Gust Speed 34 mph    
Visibility 8 miles    
Events Rain    
Averages and records for this station are not official NWS values.
T = Trace of Precipitation, MM = Missing Value Source: NWS Daily Summary

Daily Weather History Graph

Daily Weather History Graph

Search for Another Location

Airport or City:

Trip Planner

Search our weather history database for the weather conditions in past years. The results will help you decide how hot, cold, wet, or windy it might be!

Date:

Astronomy

Sep. 22, 2013 Rise Set
Actual Time 6:35 AM EDT 6:44 PM EDT
Civil Twilight 6:08 AM EDT 7:12 PM EDT
Nautical Twilight 5:35 AM EDT 7:44 PM EDT
Astronomical Twilight 5:02 AM EDT 8:17 PM EDT
Moon 8:30 PM EDT 9:55 AM EDT
Length of Visible Light 13h 04m
Length of Day
12h 09m
Waning Gibbous, 89% of the Moon is Illuminated
Sep 22
Waning Gibbous
Sep 26
Last Quarter
Oct 4
New
Oct 11
First Quarter
Oct 18
Full

Hourly Weather History & Observations

Time (EDT) Temp. Dew Point Humidity Pressure Visibility Wind Dir Wind Speed Gust Speed Precip Events Conditions
12:56 AM 69.1 °F 66.0 °F 90% 29.71 in 9.0 mi South 16.1 mph - N/A   Overcast
1:29 AM 69.8 °F 66.2 °F 88% 29.70 in 10.0 mi South 15.0 mph - 0.04 in   Overcast
1:56 AM 69.1 °F 66.0 °F 90% 29.68 in 8.0 mi South 15.0 mph - 0.04 in   Overcast
2:08 AM 69.8 °F 66.2 °F 88% 29.67 in 8.0 mi South 15.0 mph - N/A   Mostly Cloudy
2:56 AM 69.1 °F 66.9 °F 93% 29.66 in 8.0 mi South 17.3 mph - N/A   Mostly Cloudy
3:56 AM 69.1 °F 66.9 °F 93% 29.64 in 4.0 mi SSW 18.4 mph 29.9 mph 0.05 in Rain Light Rain
4:09 AM 69.8 °F 66.2 °F 88% 29.65 in 8.0 mi SSW 16.1 mph - 0.00 in Rain Light Rain
4:56 AM 68.0 °F 66.0 °F 93% 29.65 in 2.0 mi SW 20.7 mph 27.6 mph 0.13 in Rain Heavy Rain
5:06 AM 68.0 °F 66.2 °F 94% 29.65 in 1.2 mi SSW 26.5 mph 34.5 mph 0.15 in Rain Heavy Rain
5:16 AM 66.2 °F 66.2 °F 100% 29.66 in 3.0 mi SW 15.0 mph 29.9 mph 0.19 in Rain Heavy Rain
5:56 AM 66.0 °F 64.0 °F 93% 29.65 in 10.0 mi WSW 5.8 mph - 0.23 in Rain Light Rain
6:56 AM 66.0 °F 64.0 °F 93% 29.67 in 6.0 mi NW 3.5 mph - 0.05 in Rain Light Rain
7:56 AM 64.9 °F 62.1 °F 90% 29.68 in 10.0 mi NNW 4.6 mph - 0.00 in   Overcast
8:14 AM 64.4 °F 62.6 °F 94% 29.69 in 8.0 mi NW 4.6 mph - 0.00 in Rain Light Rain
8:22 AM 64.4 °F 62.6 °F 94% 29.69 in 2.5 mi NW 5.8 mph - 0.01 in Rain Rain
8:33 AM 64.4 °F 62.6 °F 94% 29.69 in 5.0 mi NW 4.6 mph - 0.01 in Rain Light Rain
8:56 AM 64.9 °F 62.1 °F 90% 29.69 in 10.0 mi Calm Calm - 0.01 in   Overcast
9:56 AM 66.9 °F 61.0 °F 81% 29.70 in 10.0 mi Calm Calm - 0.00 in   Overcast
10:56 AM 66.9 °F 60.1 °F 79% 29.70 in 10.0 mi NW 4.6 mph - N/A   Overcast
11:04 AM 69.8 °F 60.8 °F 73% 29.70 in 10.0 mi Calm Calm - N/A   Overcast
11:12 AM 69.8 °F 60.8 °F 73% 29.70 in 10.0 mi North 3.5 mph - N/A   Overcast
11:36 AM 66.2 °F 59.0 °F 78% 29.70 in 10.0 mi North 13.8 mph 18.4 mph N/A   Overcast
11:56 AM 64.9 °F 55.0 °F 70% 29.71 in 10.0 mi North 6.9 mph - N/A   Overcast
12:56 PM 70.0 °F 57.0 °F 63% 29.70 in 10.0 mi NNW 6.9 mph - N/A   Mostly Cloudy
1:03 PM 69.8 °F 55.4 °F 60% 29.70 in 10.0 mi NNW 5.8 mph - N/A   Mostly Cloudy
1:56 PM 70.0 °F 55.0 °F 59% 29.70 in 10.0 mi WNW 8.1 mph - N/A   Overcast
2:56 PM 70.0 °F 52.0 °F 53% 29.70 in 10.0 mi NNW 11.5 mph - N/A   Scattered Clouds
3:56 PM 71.1 °F 51.1 °F 49% 29.70 in 10.0 mi NNW 10.4 mph 18.4 mph N/A   Partly Cloudy
4:56 PM 69.1 °F 50.0 °F 51% 29.72 in 10.0 mi NNW 10.4 mph 18.4 mph N/A   Partly Cloudy
5:56 PM 66.0 °F 46.9 °F 50% 29.74 in 10.0 mi NNW 12.7 mph 20.7 mph N/A   Clear
6:56 PM 60.1 °F 46.0 °F 60% 29.76 in 10.0 mi NW 6.9 mph - N/A   Partly Cloudy
7:56 PM 59.0 °F 46.0 °F 62% 29.79 in 10.0 mi NNW 12.7 mph - N/A   Clear
8:56 PM 57.0 °F 43.0 °F 59% 29.82 in 10.0 mi NW 9.2 mph - N/A   Clear
9:56 PM 55.0 °F 43.0 °F 64% 29.84 in 10.0 mi NW 8.1 mph - N/A   Clear
10:56 PM 54.0 °F 43.0 °F 66% 29.86 in 10.0 mi NW 8.1 mph - N/A   Clear
11:56 PM 53.1 °F 43.0 °F 69% 29.86 in 10.0 mi NNW 10.4 mph - N/A   Clear